This is the latest recevied weather packets stored in our database for station/object KC3VCX. If no packets are shown the sender has not sent any weather packets the latest 10 day(s).
| Time | Temp. | Humidity | Pressure | Rain* | Wind** | Luminosity | Snow |
|---|---|---|---|---|---|---|---|
| 1777989506 | 21.11° C | 59% | 1011.3 hPa | 0 mm | - | 420 W/m² | - |
| 1777989202 | 20.56° C | 57% | 1011.2 hPa | 0 mm | - | 502 W/m² | - |
| 1777988898 | 20° C | 59% | 1011.1 hPa | 0 mm | - | 502 W/m² | - |
| 1777988595 | 20° C | 59% | 1011.3 hPa | 0 mm | - | 507 W/m² | - |
| 1777988291 | 20° C | 60% | 1011.2 hPa | 0 mm | - | 469 W/m² | - |
| 1777987989 | 20° C | 59% | 1011.1 hPa | 0 mm | - | 467 W/m² | - |
| 1777987684 | 19.44° C | 60% | 1011.3 hPa | 0 mm | - | 425 W/m² | - |
| 1777987381 | 19.44° C | 59% | 1011.4 hPa | 0 mm | - | 411 W/m² | - |
| 1777987079 | 18.89° C | 60% | 1011.2 hPa | 0 mm | - | 238 W/m² | - |
| 1777986776 | 18.89° C | 60% | 1011.3 hPa | 0 mm | - | 178 W/m² | - |
| 1777986473 | 18.89° C | 60% | 1011.3 hPa | 0 mm | - | 383 W/m² | - |
| 1777986172 | 18.89° C | 61% | 1011.2 hPa | 0 mm | - | 345 W/m² | - |
| 1777985868 | 18.89° C | 61% | 1011.3 hPa | 0 mm | - | 319 W/m² | - |
| 1777985566 | 18.89° C | 61% | 1011.2 hPa | 0 mm | - | 309 W/m² | - |
| 1777985262 | 18.89° C | 61% | 1011.2 hPa | 0 mm | - | 279 W/m² | - |
| 1777984959 | 18.33° C | 63% | 1011.1 hPa | 0 mm | - | 270 W/m² | - |
| 1777984654 | 17.78° C | 63% | 1011.2 hPa | 0 mm | - | 213 W/m² | - |
| 1777984351 | 17.78° C | 62% | 1011.1 hPa | 0 mm | - | 73 W/m² | - |
| 1777984048 | 18.33° C | 62% | 1011.2 hPa | 0 mm | - | 94 W/m² | - |
| 1777983745 | 18.33° C | 62% | 1011.1 hPa | 0 mm | - | 236 W/m² | - |
| 1777983442 | 17.78° C | 62% | 1011.2 hPa | 0 mm | - | 203 W/m² | - |
| 1777983139 | 17.78° C | 63% | 1011.2 hPa | 0 mm | - | 155 W/m² | - |
| 1777982835 | 17.78° C | 64% | 1011.3 hPa | 0 mm | - | 149 W/m² | - |
| 1777982531 | 17.22° C | 64% | 1011.3 hPa | 0 mm | - | 109 W/m² | - |
| 1777982225 | 17.22° C | 65% | 1011.5 hPa | 0 mm | - | 164 W/m² | - |
* Rain latest hour (hover to see other rain measurements)
** Current wind speed in m/s (hover to see current wind gust speed)